FW0960 Weather Reports


time (UTC)temp
C
wind
direction
speed
KPH
gust
KPH
rain 1hr
cm
rain 24hr
cm
rain mn
cm
humidity
%
barometer
mb
20260508202459 20 163 1.6 9.7 0.00 0.00 0.00 44 1013.7
20260508201451 20 145 1.6 6.4 0.00 0.00 0.00 45 1013.6
20260508200943 20 137 1.6 6.4 0.00 0.00 0.00 44 1013.8
20260508200437 20 144 0.0 4.8 0.00 0.00 0.00 48 1013.6
20260508195935 20 107 1.6 4.8 0.00 0.00 0.00 47 1013.6
20260508194935 20 107 1.6 6.4 0.00 0.00 0.00 43 1013.6
20260508194431 19 165 1.6 6.4 0.00 0.00 0.00 47 1013.6
20260508193931 18 169 1.6 4.8 0.00 0.00 0.00 48 1013.6
20260508193433 18 19 1.6 4.8 0.00 0.00 0.00 55 1013.9
20260508192930 19 40 1.6 4.8 0.00 0.00 0.00 53 1013.8
20260508192433 20 103 1.6 3.2 0.00 0.00 0.00 52 1014.1
20260508191933 20 113 1.6 8.0 0.00 0.00 0.00 37 1014.1
20260508191432 20 94 1.6 9.7 0.00 0.00 0.00 38 1014.0
20260508190435 19 122 1.6 11.3 0.00 0.00 0.00 41 1014.2
20260508185932 19 159 1.6 11.3 0.00 0.00 0.00 40 1014.1
20260508185436 20 99 1.6 9.7 0.00 0.00 0.00 39 1014.3
20260508184431 19 144 1.6 8.0 0.00 0.00 0.00 43 1014.3
20260508183430 20 149 1.6 8.0 0.00 0.00 0.00 43 1014.3
20260508182428 19 149 0.0 4.8 0.00 0.00 0.00 45 1014.5
20260508181428 18 159 1.6 11.3 0.00 0.00 0.00 44 1014.5
20260508180924 18 136 1.6 8.0 0.00 0.00 0.00 45 1014.6
20260508180422 18 159 1.6 8.0 0.00 0.00 0.00 42 1014.7
20260508175422 18 167 1.6 9.7 0.00 0.00 0.00 46 1014.9
20260508174414 18 113 1.6 4.8 0.00 0.00 0.00 51 1014.8
20260508173912 17 336 0.0 3.2 0.00 0.00 0.00 60 1014.9
20260508173415 18 322 0.0 3.2 0.00 0.00 0.00 55 1014.9
20260508172915 17 320 1.6 3.2 0.00 0.00 0.00 49 1015.0
20260508171411 17 134 0.0 0.0 0.00 0.00 0.00 57 1015.0
20260508165411 17 25 0.0 3.2 0.00 0.00 0.00 58 1015.2
20260508164859 17 350 0.0 3.2 0.00 0.00 0.00 58 1015.1
20260508164354 16 355 0.0 3.2 0.00 0.00 0.00 56 1015.1
20260508162837 16 159 1.6 3.2 0.00 0.00 0.00 61 1015.4
20260508162332 16 165 1.6 6.4 0.00 0.00 0.00 58 1015.6
20260508161833 16 165 0.0 6.4 0.00 0.00 0.00 57 1015.6
20260508161332 16 167 0.0 4.8 0.00 0.00 0.00 56 1015.7
20260508160834 16 168 0.0 3.2 0.00 0.00 0.00 57 1015.6
20260508160334 16 169 0.0 3.2 0.00 0.00 0.00 54 1015.7
20260508155837 16 169 0.0 3.2 0.00 0.00 0.00 50 1015.7
20260508154833 16 180 1.6 1.6 0.00 0.00 0.00 52 1016.0
20260508154333 16 181 0.0 3.2 0.00 0.00 0.00 53 1016.0
20260508153833 15 186 0.0 3.2 0.00 0.00 0.00 52 1016.1
20260508153400 15 186 1.6 4.8 0.00 0.00 0.00 48 1016.1
20260508152333 15 116 0.0 3.2 0.00 0.00 0.00 48 1016.3
20260508151835 15 113 0.0 3.2 0.00 0.00 0.00 52 1016.3
20260508150834 15 113 0.0 8.0 0.00 0.00 0.00 52 1016.5
20260508150330 15 113 0.0 8.0 0.00 0.00 0.00 51 1016.5
20260508145325 14 207 1.6 4.8 0.00 0.00 0.00 52 1016.6
20260508144313 14 196 1.6 3.2 0.00 0.00 0.00 52 1016.6
20260508143806 14 200 1.6 9.7 0.00 0.00 0.00 55 1016.8
20260508143306 14 199 1.6 9.7 0.00 0.00 0.00 52 1016.7
20260508142306 13 178 1.6 4.8 0.00 0.00 0.00 55 1016.8
20260508141808 13 193 1.6 4.8 0.00 0.00 0.00 63 1016.6
20260508140830 13 197 1.6 9.7 0.00 0.00 0.00 60 1016.6
20260508135803 13 199 1.6 9.7 0.00 0.00 0.00 57 1016.4
20260508135308 13 197 1.6 9.7 0.00 0.00 0.00 63 1016.4
20260508133801 13 190 1.6 3.2 0.00 0.00 0.00 62 1016.5
20260508133303 13 199 1.6 6.4 0.00 0.00 0.00 62 1016.5
20260508132803 13 196 1.6 6.4 0.00 0.00 0.00 63 1016.6
20260508131802 13 191 1.6 4.8 0.00 0.00 0.00 66 1016.5
20260508131304 13 200 1.6 4.8 0.00 0.00 0.00 62 1016.6
20260508130804 13 202 1.6 6.4 0.00 0.00 0.00 63 1016.6
20260508125807 12 199 1.6 6.4 0.00 0.00 0.00 63 1016.4
20260508125306 12 186 1.6 8.0 0.00 0.00 0.00 63 1016.6
20260508124802 12 186 1.6 8.0 0.00 0.00 0.00 62 1016.6
20260508124301 12 202 1.6 12.9 0.00 0.00 0.00 64 1016.5
20260508123803 12 205 1.6 12.9 0.00 0.00 0.00 65 1016.3
20260508122801 12 188 1.6 9.7 0.00 0.00 0.00 67 1016.2
20260508122306 12 196 3.2 14.5 0.00 0.00 0.00 68 1016.1
20260508121808 12 194 1.6 14.5 0.00 0.00 0.00 68 1016.1
20260508120802 12 195 1.6 8.0 0.00 0.00 0.00 68 1016.0
20260508120303 12 203 1.6 6.4 0.00 0.00 0.00 70 1016.0
20260508115305 12 201 1.6 14.5 0.00 0.00 0.00 73 1015.9
20260508114804 12 200 1.6 14.5 0.00 0.00 0.00 72 1015.9
20260508114301 11 196 1.6 8.0 0.00 0.00 0.00 71 1015.8
20260508113257 11 200 0.0 1.6 0.00 0.00 0.00 75 1015.7
20260508112804 11 200 0.0 1.6 0.00 0.00 0.00 75 1015.7
20260508111754 11 200 1.6 3.2 0.00 0.00 0.00 75 1015.5
20260508111254 10 200 0.0 3.2 0.00 0.00 0.00 76 1015.4
20260508110749 10 196 0.0 0.0 0.00 0.00 0.00 77 1015.3
20260508110248 10 196 0.0 0.0 0.00 0.00 0.00 77 1015.3
20260508104746 10 197 0.0 0.0 0.00 0.00 0.00 77 1015.0
20260508104247 10 197 0.0 0.0 0.00 0.00 0.00 77 1015.0
20260508103249 10 197 0.0 1.6 0.00 0.00 0.00 77 1014.8
20260508102248 10 197 0.0 1.6 0.00 0.00 0.00 77 1014.7
20260508101744 10 207 0.0 1.6 0.00 0.00 0.00 77 1014.6
20260508101245 10 207 0.0 1.6 0.00 0.00 0.00 77 1014.5
20260508100747 10 209 0.0 1.6 0.00 0.00 0.00 78 1014.3
20260508100249 10 209 0.0 1.6 0.00 0.00 0.00 78 1014.3
20260508095750 10 209 1.6 3.2 0.00 0.00 0.00 78 1014.3
20260508095245 10 209 1.6 3.2 0.00 0.00 0.00 79 1014.2
20260508094250 10 213 0.0 3.2 0.00 0.00 0.00 80 1013.9
20260508093750 10 213 0.0 4.8 0.00 0.00 0.00 80 1013.8
20260508093250 10 210 0.0 4.8 0.00 0.00 0.00 81 1013.7
20260508092747 10 209 1.6 3.2 0.00 0.00 0.00 82 1013.6
20260508092244 10 208 1.6 3.2 0.00 0.00 0.00 83 1013.6
20260508091745 10 208 1.6 3.2 0.00 0.00 0.00 84 1013.5
20260508091241 10 207 1.6 3.2 0.00 0.00 0.00 84 1013.5
20260508090743 10 207 1.6 3.2 0.00 0.00 0.00 85 1013.5
20260508090243 10 198 1.6 3.2 0.00 0.00 0.00 86 1013.4
20260508085239 10 177 0.0 1.6 0.00 0.00 0.00 87 1013.3
20260508084739 10 174 0.0 1.6 0.00 0.00 0.00 88 1013.1
20260508084241 10 175 0.0 1.6 0.00 0.00 0.00 88 1013.1
20260508083742 10 150 0.0 1.6 0.00 0.00 0.00 88 1013.1
20260508083241 10 148 0.0 3.2 0.00 0.00 0.00 89 1013.1
20260508082238 10 138 0.0 1.6 0.00 0.00 0.00 89 1012.9
20260508081236 10 135 0.0 4.8 0.00 0.00 0.00 89 1012.8
20260508080731 10 136 0.0 4.8 0.00 0.00 0.00 90 1012.8
20260508080232 10 137 0.0 4.8 0.00 0.00 0.00 90 1012.7
20260508075732 10 153 0.0 0.0 0.00 0.00 0.00 90 1012.7
20260508075225 10 153 0.0 3.2 0.00 0.00 0.00 90 1012.6
20260508074725 10 153 0.0 3.2 0.00 0.00 0.00 90 1012.6
20260508074221 10 157 1.6 1.6 0.00 0.00 0.00 91 1012.4
20260508073721 10 160 0.0 1.6 0.00 0.00 0.00 91 1012.2
20260508073218 10 160 0.0 6.4 0.00 0.00 0.00 91 1012.2
20260508072718 10 160 0.0 6.4 0.00 0.00 0.00 91 1012.0
20260508072218 10 164 0.0 1.6 0.00 0.00 0.00 91 1012.0
20260508071716 10 173 0.0 0.0 0.00 0.00 0.00 91 1012.1
20260508071213 10 173 0.0 0.0 0.00 0.00 0.00 91 1012.0
20260508070713 10 173 0.0 0.0 0.00 0.00 0.00 91 1011.9
20260508070213 9 173 0.0 0.0 0.00 0.00 0.00 91 1011.8
20260508065705 9 173 0.0 0.0 0.00 0.00 0.00 91 1011.7
20260508065206 9 173 0.0 0.0 0.00 0.00 0.00 91 1011.7
20260508064700 9 173 0.0 0.0 0.00 0.00 0.00 91 1011.8
20260508064207 9 173 0.0 0.0 0.00 0.00 0.00 91 1011.8
20260508063727 9 173 0.0 0.0 0.00 0.00 0.00 91 1011.9
20260508063207 9 173 0.0 0.0 0.00 0.00 0.00 91 1011.9
20260508062708 9 173 0.0 0.0 0.00 0.00 0.00 91 1011.8
20260508062205 9 173 0.0 0.0 0.00 0.00 0.00 91 1011.7
20260508061704 9 173 0.0 0.0 0.00 0.00 0.00 91 1011.8
20260508061153 9 173 0.0 1.6 0.00 0.00 0.00 91 1011.7
20260508060650 9 173 0.0 1.6 0.00 0.00 0.00 91 1011.7
20260508060147 9 174 0.0 1.6 0.00 0.00 0.00 91 1011.8
20260508055646 9 174 0.0 3.2 0.00 0.00 0.00 91 1011.7
20260508054648 9 178 0.0 1.6 0.00 0.00 0.00 91 1011.7
20260508054141 9 178 0.0 3.2 0.00 0.00 0.00 91 1011.7
20260508053647 9 178 0.0 3.2 0.00 0.00 0.00 91 1011.8
20260508052141 9 178 0.0 3.2 0.00 0.00 0.00 91 1011.8
20260508051639 9 181 0.0 1.6 0.00 0.00 0.00 92 1011.9
20260508051138 9 186 0.0 1.6 0.00 0.00 0.00 92 1011.9
20260508050636 9 188 0.0 0.0 0.00 0.00 0.00 92 1011.9
20260508050135 9 188 0.0 0.0 0.00 0.00 0.00 92 1011.8
20260508045637 9 188 0.0 0.0 0.00 0.00 0.00 93 1011.9
20260508045137 9 188 0.0 0.0 0.00 0.00 0.00 93 1011.9
20260508044635 9 188 0.0 0.0 0.00 0.00 0.00 94 1011.9
20260508044134 9 188 0.0 0.0 0.00 0.00 0.00 94 1011.9
20260508043129 9 188 0.0 0.0 0.00 0.00 0.00 94 1011.9
20260508042635 9 188 0.0 0.0 0.00 0.00 0.00 94 1011.8
20260508042129 9 188 0.0 0.0 0.00 0.00 0.00 94 1011.9
20260508041629 9 188 0.0 0.0 0.00 0.00 0.00 94 1011.8
20260508041138 9 188 0.0 0.0 0.00 0.00 0.00 94 1011.7
20260508040629 10 188 0.0 0.0 0.00 0.00 0.00 94 1011.7
20260508040136 10 188 0.0 0.0 0.00 0.00 0.00 94 1011.6
20260508035136 10 188 0.0 0.0 0.00 0.00 0.00 94 1011.6
20260508034630 10 188 0.0 0.0 0.00 0.00 0.00 94 1011.6
20260508033637 10 188 0.0 0.0 0.00 0.00 0.00 94 1011.4
20260508032635 10 188 0.0 0.0 0.00 0.00 0.00 94 1011.5
20260508032129 10 188 0.0 0.0 0.00 0.00 0.00 94 1011.4
20260508031630 10 188 0.0 0.0 0.00 0.00 0.00 94 1011.6
20260508031131 10 188 0.0 0.0 0.00 0.00 0.00 94 1011.6
20260508030632 10 188 0.0 0.0 0.00 0.00 0.00 94 1011.6
20260508025629 10 188 0.0 0.0 0.00 0.00 0.00 94 1011.6
20260508025132 10 188 0.0 0.0 0.00 0.00 0.00 93 1011.6
20260508024129 10 188 0.0 0.0 0.00 0.00 0.00 93 1011.7
20260508023129 10 188 0.0 0.0 0.00 0.00 0.00 93 1011.6
20260508022622 11 188 0.0 0.0 0.00 0.00 0.00 93 1011.6
20260508022129 11 188 0.0 0.0 0.00 0.00 0.00 93 1011.6
20260508021627 11 188 0.0 0.0 0.00 0.00 0.00 93 1011.5
20260508015627 11 188 0.0 0.0 0.00 0.00 0.00 92 1011.4
20260508015124 11 188 0.0 0.0 0.00 0.00 0.00 92 1011.4
20260508014628 11 188 0.0 0.0 0.00 0.00 0.00 92 1011.4
20260508014121 11 188 0.0 0.0 0.00 0.00 0.00 92 1011.4
20260508013622 11 188 0.0 0.0 0.00 0.00 0.00 92 1011.4
20260508013119 11 188 0.0 0.0 0.00 0.00 0.00 92 1011.4
20260508012120 11 188 0.0 0.0 0.00 0.00 0.00 92 1011.2
20260508011623 11 188 0.0 3.2 0.00 0.00 0.00 92 1011.3
20260508011119 11 188 0.0 3.2 0.00 0.00 0.00 91 1011.3
20260508005623 11 188 0.0 1.6 0.00 0.00 0.00 91 1010.9
20260508004616 11 188 0.0 0.0 0.00 0.00 0.00 91 1010.7
20260508004137 11 188 0.0 1.6 0.00 0.00 0.00 91 1010.8
20260508003615 11 188 0.0 1.6 0.00 0.00 0.00 91 1010.7
20260508002616 11 188 0.0 0.0 0.00 0.00 0.00 91 1010.5
20260508002109 11 188 0.0 0.0 0.00 0.00 0.00 90 1010.4
20260508001612 11 188 0.0 0.0 0.00 0.00 0.00 90 1010.3
20260508001110 11 188 0.0 0.0 0.00 0.00 0.00 90 1010.2
20260508000609 11 188 0.0 0.0 0.00 0.00 0.00 90 1010.3
20260508000105 11 188 0.0 0.0 0.00 0.00 0.00 90 1010.2
20260507235603 11 188 0.0 0.0 0.00 0.00 0.00 90 1010.1
20260507235105 11 188 0.0 0.0 0.00 0.00 0.00 89 1010.3
20260507234605 11 188 0.0 0.0 0.00 0.00 0.00 89 1010.1
20260507233604 11 188 0.0 0.0 0.00 0.00 0.00 88 1010.2
20260507232612 11 188 0.0 0.0 0.00 0.00 0.00 86 1010.0
20260507231047 11 188 0.0 0.0 0.00 0.00 0.00 86 1010.2
20260507230548 11 188 0.0 0.0 0.00 0.00 0.00 86 1010.3
20260507230043 11 188 0.0 0.0 0.00 0.00 0.00 87 1010.4
20260507225542 11 188 0.0 0.0 0.00 0.00 0.00 86 1010.1
20260507225041 11 188 0.0 1.6 0.00 0.00 0.00 85 1010.1
20260507224538 11 188 0.0 1.6 0.00 0.00 0.00 85 1010.1
20260507224039 11 188 0.0 1.6 0.00 0.00 0.00 86 1010.3
20260507223539 11 188 0.0 1.6 0.00 0.00 0.00 86 1010.4
20260507223041 11 188 0.0 0.0 0.00 0.00 0.00 88 1010.5
20260507222541 11 188 0.0 0.0 0.00 0.00 0.00 88 1010.7
20260507221541 11 188 0.0 0.0 0.00 0.00 0.00 89 1010.5
20260507221036 11 188 0.0 0.0 0.00 0.00 0.00 89 1010.1
20260507220537 12 188 0.0 1.6 0.00 0.00 0.00 90 1010.2
20260507215535 11 188 0.0 0.0 0.00 0.00 0.00 90 1010.1
20260507214536 12 188 0.0 1.6 0.00 0.00 0.00 90 1010.4
20260507214031 12 189 0.0 0.0 0.00 0.00 0.00 90 1010.8
20260507213530 12 188 0.0 0.0 0.00 0.00 0.00 90 1010.5
20260507213035 12 188 0.0 0.0 0.00 0.00 0.00 90 1010.6
20260507212530 12 188 0.0 0.0 0.00 0.00 0.00 89 1010.5
20260507212034 12 188 0.0 0.0 0.00 0.00 0.00 88 1010.0
20260507211536 12 188 0.0 0.0 0.00 0.00 0.00 86 1010.1
20260507210533 12 188 0.0 0.0 0.00 0.00 0.00 85 1010.7
20260507205532 12 188 0.0 1.6 0.00 0.00 0.00 82 1010.4
20260507205033 12 188 0.0 1.6 0.00 0.00 0.00 81 1010.2
20260507204035 12 188 0.0 3.2 0.00 0.00 0.00 82 1010.5
20260507203531 12 195 0.0 1.6 0.00 0.00 0.00 80 1010.4